Location: Unspecified
(0.0000°N, 0.0000°E)
Time: 06:36:13
(UTC+00:00)

Tiros 1 - Pass Details

Date: 25 November 2019
Orbit: 630 x 664 km, 48.4° (Epoch: 11 December)

Event Time Altitude Azimuth Distance (km) Brightness Sun altitude
Rises 09:12:57 0° 231° (SW) 2,955 10.4 47.1°
Reaches altitude 10° 09:15:24 10° 238° (WSW) 2,037 9.6 47.6°
Maximum altitude 09:19:49 41° 309° (NW) 923 8.0 48.5°
Drops below altitude 10° 09:24:11 10° 19° (NNE) 2,010 9.7 49.4°
Sets 09:26:36 0° 27° (NNE) 2,911 10.5 50.0°
